Regional Weather Roundup
Issued by NWS

Home | Current Version | Previous Version | Graphics & Text | Print | Product List | Glossary On
Versions: 1 2 3 4 5 6 7 8 9 10 11 12 13 14 15 16 17 18 19 20 21 22 23 24 25 26 27 28 29 30 31 32 33 34 35 36 37 38 39 40 41 42 43 44 45 46 47 48 49 50
000
ASUS43 KDTX 210010
RWRMI
MICHIGAN HOURLY REGIONAL WEATHER ROUNDUP
NATIONAL WEATHER SERVICE DETROIT/PONTIAC MI
ISSUED BY NATIONAL WEATHER SERVICE GRAND RAPIDS MI
700 PM EST MON FEB 20 2017

NOTE: "FAIR" INDICATES FEW OR NO CLOUDS BELOW 12,000 FEET WITH NO
SIGNIFICANT WEATHER AND/OR OBSTRUCTION TO VISIBILITY.

MIZ047>049-052>055-059>063-066>070-074>076-081>083-210100-
SOUTHEAST LOWER MICHIGAN

CITY           SKY/WX    TMP DP  RH WIND       PRES   REMARKS
ADRIAN         CLOUDY    40  31  70 E16       30.18S WCI  31
6HR MIN TEMP:  40; 6HR MAX TEMP:  53;

ALMA           CLOUDY    49  32  52 E9        30.13S
ANN ARBOR      CLOUDY    45  32  60 E12       30.18F
BAD AXE        CLOUDY    39  32  77 SE5       30.21S
6HR MIN TEMP:  38; 6HR MAX TEMP:  47;

DETROIT CITY   PTCLDY    40  31  70 E9        30.23S WCI  34
6HR MIN TEMP:  40; 6HR MAX TEMP:  50;

DETROIT        CLOUDY    44  32  62 E8        30.21F
6HR MIN TEMP:  44; 6HR MAX TEMP:  55;

FLINT          PTCLDY    44  31  60 SE12      30.16F
6HR MIN TEMP:  43; 6HR MAX TEMP:  56;

GROSSE ILE     CLOUDY    40  31  71 E7        30.21S
6HR MIN TEMP:  40; 6HR MAX TEMP:  53;

HILLSDALE      CLOUDY    43  32  65 E14G20    30.14R
HOWELL         CLOUDY    46  32  59 SE12      30.15F
6HR MIN TEMP:  46; 6HR MAX TEMP:  56;


CITY           SKY/WX    TMP DP  RH WIND       PRES   REMARKS
JACKSON        CLOUDY    47  31  53 SE12      30.14F
6HR MIN TEMP:  47; 6HR MAX TEMP:  58;

LANSING        MOCLDY    51  31  46 SE12      30.14F
6HR MIN TEMP:  51; 6HR MAX TEMP:  59;

MASON          CLOUDY    49  35  57 SE7       30.14S
6HR MIN TEMP:  49; 6HR MAX TEMP:  57;

MONROE         CLOUDY    40  31  70 E15G21    30.20S WCI  32
MT. CLEMENS    MOCLDY    39  33  81 E3        30.21F
6HR MIN TEMP:  38; 6HR MAX TEMP:  49;

PONTIAC        CLOUDY    42  31  64 SE12      30.18F
6HR MIN TEMP:  42; 6HR MAX TEMP:  52;

PORT HOPE        N/A     35  32  88 SE10      30.20F WCI  27
6HR MIN TEMP:  34; 6HR MAX TEMP:  36;

PORT HURON     CLOUDY    41  32  70 E5        30.22F
TRI CITIES     CLOUDY    46  34  62 SE13      30.15F
6HR MIN TEMP:  41; 6HR MAX TEMP:  52;

YPSILANTI      CLOUDY    45  33  63 E8        30.19F
6HR MIN TEMP:  45; 6HR MAX TEMP:  56;

$$
MIZ043>046-050>051-056>058-064>065-071>073-077>080-210100-
SOUTHWEST LOWER MICHIGAN

CITY           SKY/WX    TMP DP  RH WIND       PRES   REMARKS
BATTLE CREEK   CLOUDY    53  35  50 SE9       30.11S
6HR MIN TEMP:  53; 6HR MAX TEMP:  62;

BENTON HARBOR  CLOUDY    59  41  51 SE10      30.04S
6HR MIN TEMP:  59; 6HR MAX TEMP:  66;

BIG RAPIDS     CLOUDY    47  35  61 SE9       30.08S
6HR MIN TEMP:  47; 6HR MAX TEMP:  52;

COLDWATER      CLOUDY    50  34  54 SE7       30.11S
6HR MIN TEMP:  50; 6HR MAX TEMP:  60;

HOLLAND        CLOUDY    57  38  48 SE13      30.05F
6HR MIN TEMP:  57; 6HR MAX TEMP:  65;

GRAND RAPIDS   CLOUDY    53  34  48 SE10      30.08S
6HR MIN TEMP:  53; 6HR MAX TEMP:  60;

KALAMAZOO      MOCLDY    54  36  50 SE12G17   30.10S
6HR MIN TEMP:  54; 6HR MAX TEMP:  64;

MARSHALL       PTCLDY    50  33  52 E10       30.11S
6HR MIN TEMP:  50; 6HR MAX TEMP:  60;

MOUNT PLEASANT CLOUDY    44  34  68 E8        30.12F
6HR MIN TEMP:  44; 6HR MAX TEMP:  54;

MUSKEGON       CLOUDY    56  35  45 SE14      30.03F
6HR MIN TEMP:  56; 6HR MAX TEMP:  62;

STURGIS        CLOUDY    54  39  56 SE10      30.09S
6HR MIN TEMP:  54; 6HR MAX TEMP:  62;

$$
MIZ016>042-210100-
NORTHERN LOWER MICHIGAN

CITY           SKY/WX    TMP DP  RH WIND       PRES   REMARKS
ALPENA         CLOUDY    34  29  82 SE10      30.20F WCI  26
6HR MIN TEMP:  34; 6HR MAX TEMP:  39;

BEAVER ISLAND  CLOUDY    37  32  84 E13       30.03F WCI  28
6HR MIN TEMP:  37; 6HR MAX TEMP:  44;

BELLAIRE       CLOUDY    45  32  60 SE6       30.06F
6HR MIN TEMP:  45; 6HR MAX TEMP:  50;

CADILLAC       CLOUDY    42  33  71 SE10      30.07F
CHARLEVOIX     CLOUDY    46  29  53 SE13G18   30.07F
6HR MIN TEMP:  44; 6HR MAX TEMP:  50;

GAYLORD        CLOUDY    42  29  59 SE12G21   30.10F
6HR MIN TEMP:  42; 6HR MAX TEMP:  47;

HOUGHTON LAKE  CLOUDY    40  32  73 E12       30.12F WCI  33
6HR MIN TEMP:  40; 6HR MAX TEMP:  49;

MANISTEE       CLOUDY    51  35  54 SE13G24   30.00F
OSCODA         CLOUDY    37  30  78 E7        30.20F WCI  31
6HR MIN TEMP:  36; 6HR MAX TEMP:  40;

PELLSTON       MOCLDY    39  28  64 SE14      30.10F WCI  31
6HR MIN TEMP:  39; 6HR MAX TEMP:  45;

TRAVERSE CITY  CLOUDY    48  32  53 SE8       30.03F
6HR MIN TEMP:  48; 6HR MAX TEMP:  54;

LUDINGTON      CLOUDY    53  37  56 SE14G21   30.01S
6HR MIN TEMP:  53; 6HR MAX TEMP:  59;

$$
MIZ007>008-015-210100-
EASTERN UPPER MICHIGAN

CITY           SKY/WX    TMP DP  RH WIND       PRES   REMARKS
KINROSS        MOCLDY    33  23  66 E17       30.13F WCI  22
6HR MIN TEMP:  33; 6HR MAX TEMP:  37;

MACKINAC ISLAN CLOUDY    33  28  82 E17G29    30.11F WCI  22
6HR MIN TEMP:  33; 6HR MAX TEMP:  35;

NEWBERRY       CLOUDY    34  29  84 SE20G26   30.04F WCI  22
6HR MIN TEMP:  34; 6HR MAX TEMP:  40;

S. S. MARIE    MOCLDY    33  19  56 SE10G20   30.14F WCI  25
6HR MIN TEMP:  33; 6HR MAX TEMP:  36;

$$
MIZ004>006-011>014-085-210100-
CENTRAL UPPER MICHIGAN

CITY           SKY/WX    TMP DP  RH WIND       PRES   REMARKS
MANISTIQUE     CLOUDY    35  32  88 E17G29    30.00F WCI  25
6HR MIN TEMP:  35; 6HR MAX TEMP:  38;

ESCANABA       CLOUDY    40  33  76 SE14      29.97F WCI  32
6HR MIN TEMP:  39; 6HR MAX TEMP:  41;

MENOMINEE      CLOUDY    47  34  60 S16       29.93F
6HR MIN TEMP:  41; 6HR MAX TEMP:  47;

SAWYER-GWINN   CLEAR     41  32  70 S17G24    29.90F
$$
MIZ001>003-009>011-084-210100-
WESTERN UPPER MICHIGAN

CITY           SKY/WX    TMP DP  RH WIND       PRES   REMARKS
IRON MOUNTAIN  LGT RAIN  42  31  64 SW9       29.91R
6HR MIN TEMP:  42; 6HR MAX TEMP:  45; 6HR PCP: TRACE;

HOUGHTON       LGT RAIN  37  33  85 E14       29.78F WCI  28
6HR MIN TEMP:  37; 6HR MAX TEMP:  42; 6HR PCP:  0.09;

IRONWOOD       LGT RAIN  48  45  89 S15G26    29.67S FOG
6HR MIN TEMP:  47; 6HR MAX TEMP:  51; 6HR PCP:  0.14;

$$

ABBREVIATIONS USED IN REMARKS
   TC - TEMPERATURE IN CELSIUS
  WCI - WIND CHILL INDEX
   HX - HEAT INDEX
  VSB - VISIBILITY





USA.gov is the U.S. government's official web portal to all federal, state and local government web resources and services.